This is the latest recevied weather packets stored in our database for station/object KG7KID-7. If no packets are shown the sender has not sent any weather packets the latest 10 day(s).
| Time | Temp. | Humidity | Pressure | Rain* | Wind** | Luminosity | Snow |
|---|---|---|---|---|---|---|---|
| 1777937740 | 21.11° C | 21% | 974.9 hPa | 0 mm | - | - | - |
| 1777937440 | 21.67° C | 20% | 974.7 hPa | 0 mm | - | - | - |
| 1777937140 | 21.67° C | 20% | 974.9 hPa | 0 mm | - | - | - |
| 1777936840 | 21.67° C | 22% | 975 hPa | 0 mm | - | - | - |
| 1777936307 | 22.22° C | 21% | 974.9 hPa | 0 mm | - | - | - |
| 1777936008 | 22.22° C | 21% | 975 hPa | 0 mm | - | - | - |
| 1777935740 | 22.22° C | 21% | 974.9 hPa | 0 mm | - | - | - |
| 1777935707 | 22.22° C | 21% | 974.9 hPa | 0 mm | - | - | - |
| 1777935407 | 21.67° C | 20% | 974.9 hPa | 0 mm | - | - | - |
| 1777935107 | 22.22° C | 20% | 974.7 hPa | 0 mm | - | - | - |
| 1777934808 | 22.22° C | 18% | 974.8 hPa | 0 mm | - | - | - |
| 1777934507 | 22.22° C | 18% | 974.8 hPa | 0 mm | - | - | - |
| 1777933880 | 22.22° C | 26% | 974.6 hPa | 0 mm | - | - | - |
| 1777933640 | 22.22° C | 28% | 974.6 hPa | 0 mm | - | - | - |
| 1777933608 | 22.22° C | 26% | 974.6 hPa | 0 mm | - | - | - |
| 1777933341 | 22.22° C | 28% | 974.6 hPa | 0 mm | - | - | - |
| 1777933308 | 22.22° C | 28% | 974.6 hPa | 0 mm | - | - | - |
| 1777932407 | 22.22° C | 27% | 974.7 hPa | 0 mm | - | - | - |
| 1777932158 | 22.22° C | 28% | 975 hPa | 0 mm | - | - | - |
| 1777931807 | 22.22° C | 28% | 975 hPa | 0 mm | - | - | - |
| 1777931606 | 22.22° C | 29% | 974.9 hPa | 0 mm | - | - | - |
| 1777931207 | 22.22° C | 29% | 974.9 hPa | 0 mm | - | - | - |
| 1777930359 | 22.78° C | 27% | 974.6 hPa | 0 mm | - | - | - |
| 1777930359 | 22.78° C | 25% | 974.7 hPa | 0 mm | - | - | - |
| 1777930068 | 22.22° C | 27% | 974.7 hPa | 0 mm | - | - | - |
* Rain latest hour (hover to see other rain measurements)
** Current wind speed in m/s (hover to see current wind gust speed)